Location: São Paulo
(23.5507°S, 46.6334°W)
Time: 07:53:22
(UTC-03:00)

Explorer 7 - Pass Details

Date: 23 February 2026
Orbit: 430 x 541 km, 50.2° (Epoch: 11 March)

Event Time Altitude Azimuth Distance (km) Brightness Sun altitude
Rises 00:58:46 0° 272° (W) 2,707 - -55.3°
Reaches altitude 10° 01:02:23 10° 239° (WSW) 1,816 - -55.0°
Maximum altitude 01:03:58 12° 217° (SW) 1,697 - -54.9°
Drops below altitude 10° 01:05:32 10° 194° (SSW) 1,811 - -54.8°
Sets 01:09:08 0° 162° (SSE) 2,690 - -54.5°
